RH
40 42 42 43 45 46 46 44 42 41 38 36 34 32 31 31 31 29 27 24 23 22 22 23 23 24 25 25 25 26 27 28 29 28 25 23 21 21 21 21 21 19 19 20 25 31 37 40 41 44 45 44 40 41 43 47 49 48 47 47 45 42 40
37 38 39 40 42 44 46 45 45 44 41 38 34 33 32 32 33 34 33 31 29 27 26 26 27 27 27 26 26 25 26 27 29 30 30 27 25 22 21 21 21 20 19 20 24 30 36 40 42 44 44 42 39 40 43 47 51 50 47 45 43 39 36
33 34 35 37 39 41 43 45 45 45 44 40 36 33 32 30 31 33 35 36 36 35 33 32 31 31 30 29 29 28 27 28 29 31 32 30 28 25 23 22 22 21 20 20 23 29 35 39 43 44 43 40 38 39 42 48 52 50 46 44 42 37 34
30 32 32 33 35 38 41 43 44 45 44 43 39 35 32 30 30 33 36 37 39 40 40 37 34 32 32 32 32 30 29 29 30 32 33 32 31 29 27 24 23 22 22 21 23 28 33 38 41 43 40 38 38 39 42 48 51 48 44 42 40 37 34
27 30 30 30 32 35 38 40 42 43 44 44 41 38 35 33 34 36 38 38 40 41 42 40 38 35 35 35 34 32 31 31 31 32 33 34 33 32 30 27 25 24 23 22 23 26 31 35 39 41 38 36 37 39 43 49 50 46 42 40 39 38 36
24 26 27 28 29 31 34 36 38 41 43 44 43 40 37 36 37 38 39 40 41 42 43 43 42 40 39 38 35 33 33 33 33 34 34 34 34 33 32 30 28 27 25 24 23 25 29 33 36 37 35 34 36 40 44 48 48 44 41 39 38 37 37
22 22 23 25 27 29 32 34 36 39 41 43 44 43 41 39 39 38 39 41 42 43 43 42 41 42 42 40 37 35 34 34 35 35 35 34 33 33 32 31 30 29 28 27 25 25 29 32 33 34 34 33 37 42 45 47 45 42 40 39 38 37 39
21 23 22 22 26 29 31 34 36 37 40 43 44 44 44 42 40 39 40 41 43 44 43 41 40 42 42 41 37 35 35 35 35 35 35 34 33 32 31 30 30 30 30 28 27 27 30 32 33 33 32 33 38 44 46 45 43 40 38 38 37 37 39
19 23 23 21 24 30 32 34 36 38 40 43 44 44 44 42 40 40 40 41 43 43 43 42 42 43 43 41 38 36 37 36 35 35 34 33 32 30 29 29 30 31 30 30 30 31 32 33 32 32 31 33 39 46 46 45 43 39 38 38 37 38 39
16 20 22 21 22 28 32 33 36 38 40 42 43 43 42 41 41 41 41 43 43 43 44 45 45 44 43 41 38 38 39 38 37 35 34 33 31 30 28 27 29 30 30 31 33 34 34 34 32 31 30 34 41 46 47 46 42 39 38 38 38 40 41
14 17 20 22 21 23 27 30 34 37 39 41 43 43 43 42 42 43 43 44 43 44 46 47 46 45 43 40 40 41 41 41 40 37 35 33 32 32 29 27 27 28 28 30 33 35 35 34 32 30 31 36 43 46 47 46 42 39 38 39 40 43 44
13 16 20 24 23 21 22 28 33 36 38 40 42 44 46 46 46 46 45 45 44 45 47 47 46 45 43 41 41 41 42 42 42 41 39 37 36 34 32 29 28 27 27 29 33 35 35 34 32 29 32 39 44 44 44 44 41 39 39 40 42 44 47
13 15 19 23 23 22 23 28 33 35 36 38 39 42 44 45 47 46 45 45 45 45 45 45 45 45 42 41 41 41 42 42 43 43 44 43 41 38 34 31 29 28 28 30 34 35 34 32 30 29 32 40 44 44 42 42 41 41 41 41 43 46 49
12 14 16 20 23 23 24 27 32 33 34 36 37 38 40 42 43 44 44 44 44 45 44 44 44 43 41 41 41 40 41 42 44 45 46 46 44 42 38 34 31 29 29 32 35 34 32 30 29 29 32 38 42 42 41 41 41 41 42 44 45 46 48
10 11 12 16 22 25 23 25 31 33 34 36 36 36 38 39 40 42 43 43 43 43 43 42 42 41 40 40 39 39 40 43 45 46 46 47 45 43 41 39 34 31 30 31 33 32 30 28 28 29 31 37 40 40 39 40 41 42 44 46 46 46 46
9 10 9 13 20 24 22 24 28 32 34 36 36 35 35 36 38 40 41 42 42 42 41 42 42 41 41 39 38 39 42 44 45 46 47 47 46 44 43 40 37 34 31 32 33 31 29 27 28 28 30 35 38 37 37 39 40 42 45 46 46 45 44
10 11 10 12 17 20 21 23 26 30 33 34 32 33 33 32 35 39 41 41 41 40 41 42 43 43 42 39 38 40 42 43 44 46 46 46 46 45 43 42 40 37 33 32 32 32 31 29 27 27 28 33 37 36 36 38 40 43 45 46 45 44 43
10 10 11 12 14 17 18 20 23 28 32 31 30 31 30 29 31 35 38 40 39 39 41 42 43 44 43 41 41 42 42 42 44 45 45 45 45 45 44 43 42 38 35 33 31 32 32 30 28 27 27 31 35 35 35 37 40 43 44 44 43 42 42
9 10 11 12 13 15 16 18 21 26 30 31 31 30 28 27 27 30 32 35 38 40 41 43 43 43 43 44 45 44 43 44 45 44 44 44 44 45 45 43 42 40 38 35 32 31 30 28 27 27 28 31 35 35 35 37 41 43 43 43 42 42 42
10 11 12 13 13 14 15 17 20 25 29 32 32 30 28 29 30 32 33 35 38 40 41 41 42 42 43 44 44 44 44 45 45 45 45 45 45 46 46 44 43 42 40 37 34 32 29 28 28 28 29 31 34 35 35 37 40 42 43 43 42 42 42
12 13 14 14 13 14 16 17 18 23 29 32 34 32 31 33 35 36 35 36 37 39 39 39 39 40 41 42 43 43 44 44 45 45 46 46 46 46 46 45 44 43 41 40 37 34 31 29 28 28 29 32 35 36 35 35 39 41 42 43 42 43 43
14 15 15 15 15 15 16 18 18 21 25 29 33 33 33 36 37 36 36 36 37 38 38 38 39 40 41 42 42 42 43 43 44 45 46 48 48 47 46 45 44 43 42 42 40 37 33 30 29 28 29 32 35 36 34 34 38 40 41 42 43 44 45
17 17 17 16 16 16 17 19 19 20 22 25 28 31 34 36 37 36 36 37 37 38 38 39 40 40 41 41 41 41 41 43 45 46 48 50 50 49 46 45 44 43 43 43 43 41 36 33 32 30 31 32 35 35 33 34 37 40 40 42 44 45 46
18 18 18 18 18 17 17 20 20 20 22 24 27 30 33 35 35 34 34 34 35 37 38 38 39 40 40 41 41 41 42 44 46 47 47 47 48 48 47 45 44 44 44 44 45 44 40 36 34 33 32 32 33 33 33 34 36 39 40 43 46 46 45
18 18 18 18 18 17 18 19 21 22 23 25 27 28 29 30 31 32 34 34 35 36 35 36 38 39 40 42 43 43 43 43 44 45 43 43 44 47 48 47 46 46 46 46 46 47 45 40 38 36 34 33 33 34 34 35 36 39 41 45 46 44 45
18 17 17 17 18 18 20 21 21 22 23 24 26 27 27 26 27 29 32 34 35 34 33 34 37 37 38 41 43 43 43 43 44 44 44 43 44 46 48 50 49 48 48 47 47 49 48 45 42 40 37 35 35 35 35 36 38 42 45 46 45 44 45
19 18 16 16 16 17 20 23 24 24 24 25 25 26 27 28 27 27 29 31 32 32 32 34 37 36 37 39 41 41 42 43 44 45 45 47 47 47 48 49 49 49 50 50 50 51 51 49 47 44 41 39 37 36 37 38 41 45 48 46 45 45 47
19 18 17 17 16 16 17 22 25 24 24 25 27 28 29 29 29 30 31 30 30 30 32 35 38 38 38 40 41 41 41 41 42 43 45 47 48 48 46 47 48 49 51 53 52 51 51 50 49 48 46 43 41 40 41 42 44 47 47 46 45 46 48
21 19 18 17 16 16 17 20 23 24 24 25 27 28 29 30 31 32 31 30 30 32 33 35 36 36 37 38 40 41 41 40 39 39 41 43 45 44 43 44 47 49 50 53 53 52 51 51 50 50 49 48 47 46 46 47 47 47 47 46 46 47 51
23 21 19 17 16 16 17 19 22 25 25 24 25 26 27 29 31 32 32 32 33 33 33 33 33 34 35 36 38 38 39 39 38 37 38 40 41 42 41 42 45 46 47 51 54 55 54 52 51 51 52 51 50 50 50 50 49 48 48 48 48 48 52
26 23 21 18 18 17 17 17 19 22 24 24 24 26 28 30 31 32 33 34 34 35 35 34 34 34 34 34 35 37 38 40 41 41 41 42 43 43 43 44 47 47 47 49 53 57 58 55 52 51 49 48 49 52 53 52 52 51 50 50 50 52 56
29 26 23 20 19 18 17 17 17 18 20 22 23 26 29 32 34 36 37 36 36 36 36 36 35 34 33 34 37 40 41 42 43 44 44 46 48 47 47 47 48 48 49 51 54 57 59 59 57 54 51 48 49 51 54 55 54 52 51 53 56 59 60
32 30 27 25 23 21 19 17 17 17 17 19 20 21 23 26 29 33 35 36 35 35 34 34 35 36 37 38 40 41 40 40 40 41 42 45 48 50 51 51 49 49 51 52 52 54 57 59 59 58 55 54 54 52 51 52 53 53 54 57 60 63 64
37 34 32 29 27 26 23 21 20 20 19 19 19 20 20 22 25 27 30 32 33 33 33 34 35 36 37 39 40 39 38 37 37 38 39 40 43 46 48 48 48 47 47 47 47 48 51 55 59 59 57 56 57 55 51 51 52 53 54 57 61 65 68
40 38 35 32 30 29 27 26 25 24 23 22 22 22 22 23 24 25 26 28 30 32 34 36 37 37 38 39 39 39 38 37 36 37 38 39 41 41 41 41 42 42 42 42 43 44 45 48 52 55 57 60 61 59 56 56 54 53 57 66 71 71 71
43 40 38 36 35 32 30 29 27 26 25 25 24 24 25 25 26 26 27 27 29 30 32 34 36 37 39 40 41 41 40 39 38 37 37 38 39 40 40 40 41 42 43 43 43 43 43 43 45 47 54 61 65 63 62 63 63 64 68 73 75 75 74
45 42 40 38 36 34 32 31 29 28 27 26 26 26 27 28 30 30 30 31 31 31 31 32 33 35 36 37 39 40 40 40 39 38 37 37 37 38 39 40 41 43 45 46 45 45 46 47 47 48 50 55 61 67 72 74 73 75 78 76 73 74 76
48 45 42 39 38 36 36 35 34 32 31 30 30 30 31 33 34 34 35 35 34 34 33 33 33 34 35 36 37 38 38 39 39 38 39 39 39 40 41 41 41 42 43 45 47 48 48 48 50 51 53 55 63 72 78 77 75 77 81 80 77 76 75